Regional Weather Roundup
Issued by NWS

Home | Current Version | Previous Version | Graphics & Text | Print | Product List | Glossary Off
Versions: 1 2 3 4 5 6 7 8 9 10 11 12 13 14 15 16 17 18 19 20 21 22 23 24 25 26 27 28 29 30 31 32 33 34 35 36 37 38 39 40 41 42 43 44 45 46 47 48 49 50

000
ASUS43 KDMX 242307
RWRIA

WEATHER ROUNDUP FOR IOWA
NATIONAL WEATHER SERVICE DES MOINES IA
600 PM CDT FRI APR 24 2015

NOTE: "FAIR" INDICATES FEW OR NO CLOUDS BELOW 12,000 FEET WITH NO
SIGNIFICANT WEATHER AND/OR OBSTRUCTIONS TO VISIBILITY.

* - THESE STATIONS ARE NOT NWS STATIONS...THUS NOT UNDER NWS
QUALITY CONTROL.  THEY ALSO DO NOT REPORT WEATHER SUCH
AS PRECIPITATION OR FOG.

IAZ001>003-012>014-020>022-031>034-043>046-250000-
   NORTHWEST IOWA

CITY           SKY/WX    TMP DP  RH WIND       PRES   REMARKS
CARROLL *      MOSUNNY   61  52  72 E23       29.63S
CHEROKEE *     SUNNY     64  52  63 E16G23    29.60S
DENISON *      PTSUNNY   66  54  63 S16G22    29.59S
LE MARS *      MOSUNNY   73  52  46 SE15      29.55F
ORANGE CITY *  SUNNY     68  52  56 SE14G22   29.56F
SHELDON *      SUNNY     63  52  67 SE23G31   29.58S
SIOUX CITY     MOSUNNY   73  51  46 S10       29.55F
SPENCER        MOSUNNY   55  47  74 SE23G32   29.64F
STORM LAKE *   SUNNY     61  50  67 SE23      29.63S
$$

IAZ055>058-069>071-079>083-090>094-250000-
   SOUTHWEST IOWA

CITY           SKY/WX    TMP DP  RH WIND       PRES   REMARKS
ATLANTIC *     MOSUNNY   63  52  67 S16       29.62F HAZE
AUDUBON *      MOSUNNY   64  54  68 S12       29.64S
CLARINDA *     CLOUDY    57  54  88 SE5       29.66S
COUNCIL BLFS * PTSUNNY   63  54  72 S16       29.62R
CRESTON *      CLOUDY    57  52  82 S14       29.66F
HARLAN  *      PTSUNNY   63  57  82 S15       29.65R
LAMONI         CLOUDY    59  52  77 S10       29.67F
RED OAK *      CLOUDY    61  52  72 S15       29.64R
SHENANDOAH *   CLOUDY    59  54  82 SE10      29.64R
$$

IAZ047>049-059>061-072>074-084-250000-
   CENTRAL IOWA

CITY           SKY/WX    TMP DP  RH WIND       PRES   REMARKS
AMES           CLOUDY    51  46  83 E14G24    29.71F
ANKENY *       CLOUDY    54  48  82 E17       29.69F
CHARITON *     CLOUDY    59  50  72 E8        29.68F
DES MOINES     CLOUDY    56  49  77 E9G18     29.69F
GRINNELL*      CLOUDY    48  45  87 E15G22    29.74S
KNOXVILLE *    CLOUDY    54  50  87 E9        29.69F
MARSHALLTOWN   CLOUDY    48  44  86 E23G33    29.73F
PELLA *        CLOUDY    50  50 100 E8        29.72F
PERRY *        CLOUDY    59  50  72 E20       29.67R
$$

IAZ004>006-015-016-023>025-035-036-250000-
   NORTH CENTRAL IOWA

CITY           SKY/WX    TMP DP  RH WIND       PRES   REMARKS
ALGONA *       CLOUDY    50  46  87 SE21G26   29.69F
CLARION *      CLOUDY    48  48 100 SE23G29   29.71S
ESTHERVILLE    CLOUDY    50  45  83 SE21      29.68R
FORT DODGE *   CLOUDY    54  46  76 SE17      29.69F
MASON CITY     CLOUDY    47  43  86 SE21G29   29.75S
FOREST CITY *  CLOUDY    45  43  93 SE16      29.73F
IOWA FALLS *   CLOUDY    48  43  81 E20       29.74S
$$

IAZ007>011-017>019-026>030-037>042-050>054-066-250000-
   NORTHEAST IOWA

CITY           SKY/WX    TMP DP  RH WIND       PRES   REMARKS
CEDAR RAPIDS   LGT RAIN  45  45 100 E18       29.79S
CHARLES CITY * PTSUNNY   46  43  87 SE25G31   29.77F
CLINTON *      CLOUDY    46  41  81 E16       29.83F
DECORAH *      CLOUDY    43  41  93 SE15G21   29.81F
DUBUQUE        CLOUDY    43  40  89 NE10      29.87F
MONTICELLO *   LGT RAIN  45  45 100 E10       29.85S
OELWEIN *      CLOUDY    45  41  87 SE21G29   29.80F
WATERLOO       CLOUDY    46  41  82 SE21G29   29.76F
$$

IAZ064-065-067-068-078-250000-
   EAST CENTRAL IOWA

CITY           SKY/WX    TMP DP  RH WIND       PRES   REMARKS
DAVENPORT      LGT RAIN  49  39  68 E10G22    29.82F
IOWA CITY      CLOUDY    47  44  90 NE12      29.80F THUNDER
MT. PLEASANT * CLOUDY    61  39  44 E8        29.75F
MUSCATINE *    CLOUDY    54  46  76 E9G15     29.78F
QUAD CITIES    HVY RAIN  50  42  74 E13       29.80F
$$

IAZ062-063-075>077-085>089-095>099-250000-
   SOUTHEAST IOWA

CITY           SKY/WX    TMP DP  RH WIND       PRES   REMARKS
BURLINGTON     CLOUDY    63  36  36 SE13G22   29.75S
FAIRFIELD *    CLOUDY    55  48  76 VRB5G14   29.72F
FORT MADISON * CLOUDY    64  37  36 SE14G20   29.75R
KEOKUK *       CLOUDY    64  39  39 SE13      29.73S
OSKALOOSA *    LGT RAIN  50  48  93 E14       29.72F
CENTERVILLE *  PTSUNNY   61  50  67 S12       29.71S
OTTUMWA        LGT RAIN  54  49  83 NE14      29.72S
WASHINGTON *   CLOUDY    54  54 100 NE9G17    29.76F
$$

ABBREVIATIONS USED IN REMARKS
   TC - TEMPERATURES IN CELSIUS
  WCI - WIND CHILL INDEX
   HX - HEAT INDEX
  VSB - VISIBILITY
$$



USA.gov is the U.S. government's official web portal to all federal, state and local government web resources and services.